Weather in Selenduma

Russia / Republic of Buryatia     50°55′02″N   106°14′09″E
temp.,
°C
wind,
m/s
gust,
m/s
humid.,
%
clouds,
%
prec.,
mm/h
press.,
hPa
HPBL,
m
18 may, wed
wed1823:00+13wsw22515 0.0 101213
02:00+11wnw22595 0.0 101312
05:00+9nw216620 0.0 101312
08:00+16sw12446 0.0 1014245
11:00+21nne0331100 0.0 10121986
14:00+23ene232799 0.0 10112071
17:00+23ese132599 0.0 10112051
20:00+19ne22364 0.0 101117
19 may, thu
thu1923:00+15nw11470 0.0 101311
02:00+13nw115217 0.0 101411
05:00+11wnw11575 0.0 101411
08:00+18sw01385 0.0 1014264
11:00+24ssw34265 0.0 10121316
14:00+27ssw342145 0.0 10093082
17:00+27ene12235 0.0 10081448
20:00+23sse11345 0.0 100812
20 may, fri
fri2023:00+17w224592 0.0 101011
02:00+15nw21475 0.0 100911
05:00+13wnw115170 0.0 100911
08:00+19sw013775 0.0 1009247
11:00+24ne113013 0.0 1008893
14:00+28e222266 0.0 10051607
17:00+29ene231946 0.0 10041818
20:00+23nne23285 0.0 100520
21 may, sat
sat2123:00+18n114099 0.0 100711
02:00+16nw11477 0.0 100711
05:00+12nnw3473100 0.0 101087
08:00+17n566481 0.0 1010711
11:00+19nnw111050100 0.0 10111142
14:00+16nnw71054100 0.1 10131026
17:00+12n61069100 0.4 1013731
20:00+14nnw125920 0.5 101271
22 may, sun
sun2223:00+11wsw11660 0.0 101311
02:00+9wnw22716 0.0 101311
05:00+8w11775 0.0 101311
08:00+14sw12475 0.0 1013334
11:00+21ssw23305 0.0 10101454
14:00+23ssw142756 0.0 10082497
17:00+24n782629 0.0 10061668
20:00+18ne354599 0.0 1008102